P/2012 B1 ( PanSTARRS )

Japanese version
Home page
Updated on June 9, 2013

---------------------------------------------------------------------

* Profile

Discovery Date January 25, 2012
Magnitude 19.7 mag
Discoverer Pan-STARRS 1 telescope (Haleakala)

* Pictures

* Orbital Elements

Epoch 2013 July 7.0 TT = JDT 2456480.5
T 2013 July 23.07200 TT                                 MPC
q   3.8253513            (2000.0)            P               Q
n   0.05958116     Peri.  162.16896     -0.94746586     +0.31010408
a   6.4922725      Node    36.19657     -0.30725098     -0.81425508
e   0.4107839      Incl.    7.62722     -0.08891165     -0.49073835
P  16.5
From 257 observations 1997 June 1-2012 Oct. 23, mean residual 0".5.

* Finding Charts

* Magnitudes Graph

        m1 = 3.3 + 5 log d + 17.5 log r

---------------------------------------------------------------------

The orbital elements are published on M.P.E.C. 2012-V101.
The charts are made with StellaNavigator Ver.8 (AstroArts).
The magnitudes graphs are made with Comet for Windows.

---------------------------------------------------------------------

Copyright(C) Seiichi Yoshida (comet@aerith.net). All rights reserved.